Location: Garden of he Gods Recreation Area
(37.6010°N, 88.3780°W)
Time: 09:06:41
(UTC-06:00)

Hubble Space Telescope - Pass Details

Date: 27 October 2019
Orbit: 536 x 540 km, 28.5° (Epoch: 21 November)

Event Time Altitude Azimuth Distance (km) Brightness Sun altitude
Rises 06:23:25 0° 216° (SW) 2,663 4.0 -10.5°
Reaches altitude 10° 06:27:00 10° 184° (S) 1,774 3.5 -9.8°
Maximum altitude 06:28:32 12° 162° (SSE) 1,660 3.6 -9.5°
Drops below altitude 10° 06:30:04 10° 139° (SE) 1,776 4.2 -9.2°
Sets 06:33:39 0° 107° (ESE) 2,668 6.6 -8.5°
